Preview of NWS' New Version of Forecast
This preview is not operational and should not be used for support decisions.

Regional Weather Roundup (RWR)

Issued by National Weather Service (NWS)

                            
000
ASUS46 KSEW 170110
RWRWA 

WASHINGTON REGIONAL WEATHER ROUNDUP
NATIONAL WEATHER SERVICE SEATTLE WA
600 PM PDT TUE JUL 16 2019

NOTE:"FAIR" INDICATES FEW OR NO CLOUDS BELOW 12,000 FEET WITH NO 
SIGNIFICANT WEATHER AND/OR OBSTRUCTIONS TO VISIBILITY.

WAZ507-509-555>559-170200-
SEATTLE, TACOMA, EVERETT, AND VICINITY
  
CITY           SKY/WX    TMP DP  RH WIND       PRES   REMARKS
EVERETT        PTSUNNY   72  55  55 N7        29.97S                  
BOEING FIELD   PTSUNNY   80  52  37 SW7       29.93F                  
RENTON         PTSUNNY   80  53  39 VRB6      29.93F                  
SEATAC AIRPORT PTSUNNY   78  52  40 SW6       29.95F                  
JBLM-MCCHORD   PTSUNNY   78  62  58 SW14      29.95F                  
PUYALLUP       CLOUDY    79  54  41 VRB5      29.96F                  
BREMERTON      PTSUNNY   78  54  43 S8        29.95S                  
JBLM-FT LEWIS  NOT AVBL                                               
TACOMA NARROWS PTSUNNY   74  54  49 S10       29.95F                  
$$
 
WAZ001-503-506-510-514-515-170200-
NORTH INTERIOR
  
CITY           SKY/WX    TMP DP  RH WIND       PRES   REMARKS
BELLINGHAM     PTSUNNY   73  54  51 S8        29.94F                  
FRIDAY HARBOR  PTSUNNY   64  54  69 SW8       29.96F                  
EASTSOUND      PTSUNNY   75  55  50 S8        29.93S                  
PORT ANGELES   PTSUNNY   67  56  67 W10       29.98F                  
EDIZ HOOK      MOCLDY    61  54  77 W17G23    29.97S                  
PORT TOWNSEND  PTSUNNY   68  57  68 NW8       29.96S                  
NAS WHIDBEY    PTSUNNY   63  53  70 W6        30.01F                  
ARLINGTON      MOSUNNY   73  57  56 NW13      29.95S                  
BURLINGTON     SUNNY     77  57  50 VRB5      29.95F                  
$$
 
WAZ020-022-039-040-504-511-512-170200-
SOUTHWEST INTERIOR
  
CITY           SKY/WX    TMP DP  RH WIND       PRES   REMARKS
SHELTON        MOSUNNY   76  54  46 W17G25    29.94S                  
OLYMPIA        PTSUNNY   69  58  67 SW12      29.97S                  
CHEHALIS       PTSUNNY   75  63  64 SW10      29.98F                  
KELSO          CLOUDY    73  59  61 NW12G17   29.99R                  
VANCOUVER      CLOUDY    76  57  51 NW12      29.96R                  
SCAPPOOSE, OR  PTSUNNY   74  61  63 N10       29.96R                  
PORTLAND, OR   PTSUNNY   78  58  49 NW13      29.96R                  
$$
 
WAZ021-516-517-170200-
WASHINGTON COAST
  
CITY           SKY/WX    TMP DP  RH WIND       PRES   REMARKS
FORKS          SUNNY     66  57  72 W9        30.00S                  
HOQUIAM        SUNNY     69  61  75 W14       30.01F                  
ASTORIA, OR    CLOUDY    66  59  78 W9        30.02F                  
$$
 
WAZ019-023-024-040-567>569-170200-
CASCADE MOUNTAINS AND COLUMBIA GORGE
  
CITY           SKY/WX    TMP DP  RH WIND       PRES   REMARKS
STAMPEDE PASS  PTSUNNY   60  49  66 VRB5      30.05S                  
TROUTDALE, OR  CLOUDY    79  54  41 W3        29.94S                  
HOOD RIVER, OR PTCLDY    79  45  29 W7G18     29.93S                  
THE DALLES, OR SUNNY     83  45  26 W25G33    29.87S                  
$$

WAZ026-027-041>044-520-521-170200-
EAST SLOPES
  
CITY           SKY/WX    TMP DP  RH WIND       PRES   REMARKS
OMAK           PTSUNNY   84  49  29 NW13      29.84S                  
WENATCHEE      MOSUNNY   82  41  23 SW15      29.84F                  
ELLENSBURG     CLOUDY    79  50  36 W20       29.91R                  
YAKIMA         MOSUNNY   83  48  29 VRB5      29.86F                  
SUNNYSIDE ARPT PTCLDY    82  52  36 W6        29.85                   
YAKIMA TC      FAIR      82  46  28 N12       29.86F                  
$$

WAZ028-034-035-170200-
COLUMBIA BASIN
  
CITY           SKY/WX    TMP DP  RH WIND       PRES   REMARKS
EPHRATA        MOSUNNY   80  45  28 SW12      29.86S                  
MOSES LAKE     MOSUNNY   85  47  26 SW8       29.86S                  
PASCO          SUNNY     88  48  25 W8        29.83S                  
RICHLAND ARPT  PTCLDY    89  48  24 S9        29.82S                  
HERMISTON, OR  SUNNY     87  44  22 W14       29.83F                  
$$

WAZ036>038-170200-
NORTHEAST WASHINGTON
  
CITY           SKY/WX    TMP DP  RH WIND       PRES   REMARKS
SPOKANE GEIGER PTSUNNY   73  52  47 S7        29.90F                  
SPOKANE FELTS  PTSUNNY   76  51  41 SE7       29.90F                  
FAIRCHILD AFB  CLOUDY    73  50  44 SE8       29.90F                  
COEURDALENE,ID MOSUNNY   75  50  41 CALM      29.93F                  
DEER PARK      MOSUNNY   75  51  43 S8        29.91S                  
$$

WAZ029>033-170200-
SOUTHEAST WASHINGTON
  
CITY           SKY/WX    TMP DP  RH WIND       PRES   REMARKS
PULLMAN        MOSUNNY   77  46  33 VRB3      29.93F                  
LEWISTON, ID   MOSUNNY   84  44  24 NW3       29.86F                  
WALLA WALLA    MOSUNNY   83  46  27 SW8       29.87S                  
PENDLETON, OR  SUNNY     83  44  25 NW9       29.88S                  
$$